Time,TemperatureF,DewpointF,PressureIn,WindDirection,WindDirectionDegrees,WindSpeedMPH,WindSpeedGustMPH,Humidity,HourlyPrecipIn,Conditions,Clouds,dailyrainin,SoftwareType,DateUTC
2013-04-25 00:01:00,53.0,48.0,29.92,WNW,296,3.0,8.0,82,0.00,,,0.00,,2013-04-25 07:01:00,
2013-04-25 00:11:00,53.0,48.0,29.92,WNW,298,3.0,7.0,82,0.00,,,0.00,,2013-04-25 07:11:00,
2013-04-25 00:21:00,53.0,48.0,29.92,WNW,298,3.0,7.0,82,0.00,,,0.00,,2013-04-25 07:21:00,
2013-04-25 00:31:00,53.0,48.0,29.92,WNW,286,4.0,10.0,83,0.00,,,0.00,,2013-04-25 07:31:00,
2013-04-25 00:41:00,53.0,48.0,29.92,WNW,286,4.0,10.0,83,0.00,,,0.00,,2013-04-25 07:41:00,
2013-04-25 00:52:00,53.0,48.0,29.92,WNW,296,5.0,10.0,83,0.00,,,0.00,,2013-04-25 07:52:00,
2013-04-25 01:01:00,53.0,48.0,29.92,West,281,4.0,9.0,83,0.00,,,0.00,,2013-04-25 08:01:00,
2013-04-25 01:11:00,53.0,48.0,29.92,West,281,4.0,9.0,83,0.00,,,0.00,,2013-04-25 08:11:00,
2013-04-25 01:21:00,53.0,48.0,29.92,West,272,5.0,11.0,84,0.00,,,0.00,,2013-04-25 08:21:00,
2013-04-25 01:31:00,53.0,48.0,29.92,West,277,5.0,9.0,84,0.00,,,0.00,,2013-04-25 08:31:00,
2013-04-25 01:41:00,53.0,48.0,29.92,West,277,5.0,9.0,84,0.00,,,0.00,,2013-04-25 08:41:00,
2013-04-25 01:52:00,52.0,47.0,29.92,NW,304,5.0,9.0,84,0.00,,,0.00,,2013-04-25 08:52:00,
2013-04-25 02:01:00,52.0,47.0,29.92,WNW,296,5.0,8.0,84,0.00,,,0.00,,2013-04-25 09:01:00,
2013-04-25 02:11:00,52.0,47.0,29.92,WNW,296,5.0,8.0,84,0.00,,,0.00,,2013-04-25 09:11:00,
2013-04-25 02:21:00,52.0,47.0,29.92,WNW,287,3.0,10.0,84,0.00,,,0.00,,2013-04-25 09:21:00,
2013-04-25 02:32:00,52.0,47.0,29.92,West,280,5.0,10.0,84,0.00,,,0.00,,2013-04-25 09:32:00,
2013-04-25 02:42:00,52.0,47.0,29.92,West,280,5.0,10.0,84,0.00,,,0.00,,2013-04-25 09:42:00,
2013-04-25 02:52:00,52.0,47.0,29.92,WNW,288,5.0,10.0,84,0.00,,,0.00,,2013-04-25 09:52:00,
2013-04-25 03:02:00,52.0,47.0,29.92,West,279,6.0,11.0,84,0.00,,,0.00,,2013-04-25 10:02:00,
2013-04-25 03:12:00,52.0,47.0,29.92,West,279,6.0,11.0,84,0.00,,,0.00,,2013-04-25 10:12:00,
2013-04-25 03:22:00,52.0,48.0,29.92,WNW,288,5.0,12.0,85,0.00,,,0.00,,2013-04-25 10:22:00,
2013-04-25 03:32:00,52.0,48.0,29.92,West,267,6.0,11.0,85,0.00,,,0.00,,2013-04-25 10:32:00,
2013-04-25 03:42:00,52.0,48.0,29.92,West,267,6.0,11.0,85,0.00,,,0.00,,2013-04-25 10:42:00,
2013-04-25 03:52:00,52.0,48.0,29.92,West,278,7.0,11.0,85,0.00,,,0.00,,2013-04-25 10:52:00,
2013-04-25 04:02:00,52.0,48.0,29.92,WNW,286,7.0,12.0,85,0.00,,,0.00,,2013-04-25 11:02:00,
2013-04-25 04:11:00,52.0,48.0,29.92,WNW,286,7.0,12.0,85,0.00,,,0.00,,2013-04-25 11:11:00,
2013-04-25 04:22:00,52.0,48.0,29.92,NW,325,6.0,12.0,85,0.00,,,0.00,,2013-04-25 11:22:00,
2013-04-25 04:32:00,52.0,48.0,29.93,WSW,248,2.0,11.0,85,0.00,,,0.00,,2013-04-25 11:32:00,
2013-04-25 04:42:00,52.0,48.0,29.93,WSW,248,2.0,11.0,85,0.00,,,0.00,,2013-04-25 11:42:00,
2013-04-25 04:52:00,52.0,48.0,29.93,WSW,239,4.0,10.0,86,0.00,,,0.00,,2013-04-25 11:52:00,
2013-04-25 05:01:00,52.0,48.0,29.93,WNW,292,4.0,11.0,86,0.00,,,0.00,,2013-04-25 12:01:00,
2013-04-25 05:12:00,52.0,48.0,29.93,WNW,292,4.0,11.0,86,0.00,,,0.00,,2013-04-25 12:12:00,
2013-04-25 05:21:00,52.0,48.0,29.94,WNW,286,6.0,11.0,86,0.00,,,0.00,,2013-04-25 12:21:00,
2013-04-25 05:31:00,52.0,48.0,29.94,West,269,4.0,9.0,85,0.00,,,0.00,,2013-04-25 12:31:00,
2013-04-25 05:41:00,52.0,48.0,29.94,West,269,4.0,9.0,85,0.00,,,0.00,,2013-04-25 12:41:00,
2013-04-25 05:52:00,53.0,49.0,29.94,West,276,3.0,8.0,85,0.00,,,0.00,,2013-04-25 12:52:00,
2013-04-25 06:02:00,53.0,49.0,29.95,WSW,248,5.0,11.0,85,0.00,,,0.00,,2013-04-25 13:02:00,
2013-04-25 06:11:00,53.0,49.0,29.95,WSW,248,5.0,11.0,85,0.00,,,0.00,,2013-04-25 13:11:00,
2013-04-25 06:21:00,54.0,49.0,29.96,WSW,249,5.0,15.0,83,0.00,,,0.00,,2013-04-25 13:21:00,
2013-04-25 06:31:00,54.0,49.0,29.96,WNW,282,3.0,11.0,82,0.00,,,0.00,,2013-04-25 13:31:00,
2013-04-25 06:42:00,54.0,49.0,29.96,WNW,282,3.0,11.0,82,0.00,,,0.00,,2013-04-25 13:42:00,
2013-04-25 06:52:00,54.0,48.0,29.98,WNW,292,7.0,12.0,81,0.00,,,0.00,,2013-04-25 13:52:00,
2013-04-25 07:01:00,54.0,48.0,29.97,WSW,240,5.0,12.0,80,0.00,,,0.00,,2013-04-25 14:01:00,
2013-04-25 07:11:00,54.0,48.0,29.97,WSW,240,5.0,12.0,80,0.00,,,0.00,,2013-04-25 14:11:00,
2013-04-25 07:21:00,54.0,48.0,29.98,WNW,302,3.0,9.0,80,0.00,,,0.00,,2013-04-25 14:21:00,
2013-04-25 07:32:00,54.0,48.0,29.98,WSW,254,6.0,11.0,80,0.00,,,0.00,,2013-04-25 14:32:00,
2013-04-25 07:41:00,54.0,48.0,29.98,WSW,254,6.0,11.0,80,0.00,,,0.00,,2013-04-25 14:41:00,
2013-04-25 07:52:00,55.0,49.0,29.99,West,270,4.0,10.0,80,0.00,,,0.00,,2013-04-25 14:52:00,
2013-04-25 08:01:00,55.0,49.0,29.99,West,272,5.0,10.0,79,0.00,,,0.00,,2013-04-25 15:01:00,
2013-04-25 08:11:00,55.0,49.0,29.99,West,272,5.0,10.0,79,0.00,,,0.00,,2013-04-25 15:11:00,
2013-04-25 08:21:00,56.0,49.0,30.00,WNW,291,6.0,12.0,77,0.00,,,0.00,,2013-04-25 15:21:00,
2013-04-25 08:33:00,56.0,48.0,30.00,West,280,5.0,10.0,75,0.00,,,0.00,,2013-04-25 15:33:00,
2013-04-25 08:42:00,56.0,48.0,30.00,West,280,5.0,10.0,75,0.00,,,0.00,,2013-04-25 15:42:00,
2013-04-25 08:53:00,58.0,49.0,30.01,West,277,6.0,11.0,72,0.00,,,0.00,,2013-04-25 15:53:00,
2013-04-25 09:02:00,58.0,48.0,30.01,WSW,244,5.0,11.0,70,0.00,,,0.00,,2013-04-25 16:02:00,
2013-04-25 09:13:00,58.0,48.0,30.01,WSW,244,5.0,11.0,70,0.00,,,0.00,,2013-04-25 16:13:00,
2013-04-25 09:24:00,59.0,48.0,30.01,WNW,303,7.0,12.0,68,0.00,,,0.00,,2013-04-25 16:24:00,
2013-04-25 09:32:00,60.0,49.0,30.01,West,264,5.0,10.0,67,0.00,,,0.00,,2013-04-25 16:32:00,
2013-04-25 09:42:00,60.0,49.0,30.01,West,264,5.0,10.0,67,0.00,,,0.00,,2013-04-25 16:42:00,
2013-04-25 09:52:00,61.0,49.0,30.01,NW,309,5.0,9.0,65,0.00,,,0.00,,2013-04-25 16:52:00,
2013-04-25 10:02:00,61.0,49.0,30.02,WSW,249,4.0,10.0,65,0.00,,,0.00,,2013-04-25 17:02:00,
2013-04-25 10:11:00,61.0,49.0,30.02,WSW,249,4.0,10.0,65,0.00,,,0.00,,2013-04-25 17:11:00,
2013-04-25 10:22:00,62.0,49.0,30.03,WNW,295,5.0,11.0,63,0.00,,,0.00,,2013-04-25 17:22:00,
2013-04-25 10:31:00,63.0,49.0,30.03,West,263,5.0,13.0,61,0.00,,,0.00,,2013-04-25 17:31:00,
2013-04-25 10:41:00,63.0,49.0,30.03,West,263,5.0,13.0,61,0.00,,,0.00,,2013-04-25 17:41:00,
2013-04-25 10:53:00,63.0,49.0,30.03,NW,305,5.0,10.0,61,0.00,,,0.00,,2013-04-25 17:53:00,
2013-04-25 11:01:00,65.0,50.0,30.03,West,271,3.0,11.0,58,0.00,,,0.00,,2013-04-25 18:01:00,
2013-04-25 11:11:00,65.0,50.0,30.03,West,271,3.0,11.0,58,0.00,,,0.00,,2013-04-25 18:11:00,
2013-04-25 11:21:00,66.0,50.0,30.03,SW,227,4.0,12.0,56,0.00,,,0.00,,2013-04-25 18:21:00,
2013-04-25 11:31:00,66.0,50.0,30.03,WSW,249,6.0,10.0,56,0.00,,,0.00,,2013-04-25 18:31:00,
2013-04-25 11:42:00,66.0,50.0,30.03,WSW,249,6.0,10.0,56,0.00,,,0.00,,2013-04-25 18:42:00,
2013-04-25 11:52:00,67.0,50.0,30.03,West,279,5.0,11.0,54,0.00,,,0.00,,2013-04-25 18:52:00,
2013-04-25 12:01:00,67.0,50.0,30.03,SW,218,6.0,12.0,55,0.00,,,0.00,,2013-04-25 19:01:00,
2013-04-25 12:11:00,67.0,50.0,30.03,SW,218,6.0,12.0,55,0.00,,,0.00,,2013-04-25 19:11:00,
2013-04-25 12:21:00,69.0,50.0,30.03,West,276,6.0,12.0,51,0.00,,,0.00,,2013-04-25 19:21:00,
2013-04-25 12:31:00,71.0,51.0,30.03,WSW,250,6.0,13.0,50,0.00,,,0.00,,2013-04-25 19:31:00,
2013-04-25 12:41:00,71.0,51.0,30.03,WSW,250,6.0,13.0,50,0.00,,,0.00,,2013-04-25 19:41:00,
2013-04-25 12:52:00,69.0,50.0,30.02,NW,306,6.0,12.0,50,0.00,,,0.00,,2013-04-25 19:52:00,
2013-04-25 13:01:00,70.0,51.0,30.01,West,281,4.0,11.0,51,0.00,,,0.00,,2013-04-25 20:01:00,
2013-04-25 13:11:00,70.0,51.0,30.01,West,281,4.0,11.0,51,0.00,,,0.00,,2013-04-25 20:11:00,
2013-04-25 13:21:00,70.0,50.0,30.01,WNW,294,7.0,14.0,50,0.00,,,0.00,,2013-04-25 20:21:00,
2013-04-25 13:31:00,70.0,50.0,30.02,WNW,294,7.0,14.0,50,0.00,,,0.00,,2013-04-25 20:31:00,
2013-04-25 13:42:00,70.0,50.0,30.02,WNW,294,7.0,14.0,50,0.00,,,0.00,,2013-04-25 20:42:00,
2013-04-25 13:52:00,71.0,51.0,30.01,NW,309,6.0,13.0,49,0.00,,,0.00,,2013-04-25 20:52:00,
2013-04-25 14:01:00,70.0,50.0,30.01,North,355,7.0,12.0,50,0.00,,,0.00,,2013-04-25 21:01:00,
2013-04-25 14:11:00,70.0,50.0,30.01,North,355,7.0,12.0,50,0.00,,,0.00,,2013-04-25 21:11:00,
2013-04-25 14:21:00,70.0,51.0,30.01,NW,306,7.0,14.0,51,0.00,,,0.00,,2013-04-25 21:21:00,
2013-04-25 14:32:00,71.0,51.0,30.02,WNW,284,10.0,16.0,49,0.00,,,0.00,,2013-04-25 21:32:00,
2013-04-25 14:42:00,71.0,51.0,30.02,WNW,284,10.0,16.0,49,0.00,,,0.00,,2013-04-25 21:42:00,
2013-04-25 14:52:00,70.0,50.0,30.02,WSW,244,9.0,16.0,50,0.00,,,0.00,,2013-04-25 21:52:00,
2013-04-25 15:02:00,70.0,50.0,30.02,WNW,302,9.0,16.0,50,0.00,,,0.00,,2013-04-25 22:02:00,
2013-04-25 15:12:00,70.0,50.0,30.02,WNW,302,9.0,16.0,50,0.00,,,0.00,,2013-04-25 22:12:00,
2013-04-25 15:22:00,70.0,50.0,30.02,WSW,250,7.0,17.0,50,0.00,,,0.00,,2013-04-25 22:22:00,
2013-04-25 15:32:00,70.0,50.0,30.02,WSW,252,9.0,16.0,49,0.00,,,0.00,,2013-04-25 22:32:00,
2013-04-25 15:42:00,70.0,50.0,30.02,WSW,252,9.0,16.0,49,0.00,,,0.00,,2013-04-25 22:42:00,
2013-04-25 15:52:00,71.0,51.0,30.02,WNW,286,6.0,15.0,49,0.00,,,0.00,,2013-04-25 22:52:00,
2013-04-25 16:02:00,70.0,50.0,30.01,WNW,288,8.0,16.0,49,0.00,,,0.00,,2013-04-25 23:02:00,
2013-04-25 16:12:00,70.0,50.0,30.01,WNW,288,8.0,16.0,49,0.00,,,0.00,,2013-04-25 23:12:00,
2013-04-25 16:21:00,70.0,50.0,30.02,West,272,8.0,18.0,50,0.00,,,0.00,,2013-04-25 23:21:00,
2013-04-25 16:32:00,70.0,50.0,30.02,WSW,254,9.0,15.0,50,0.00,,,0.00,,2013-04-25 23:32:00,
2013-04-25 16:41:00,70.0,50.0,30.02,WSW,254,9.0,15.0,50,0.00,,,0.00,,2013-04-25 23:41:00,
2013-04-25 16:52:00,69.0,50.0,30.01,WNW,283,9.0,15.0,51,0.00,,,0.00,,2013-04-25 23:52:00,
2013-04-25 17:01:00,69.0,51.0,30.02,WNW,284,7.0,16.0,52,0.00,,,0.00,,2013-04-26 00:01:00,
2013-04-25 17:11:00,69.0,51.0,30.02,WNW,284,7.0,16.0,52,0.00,,,0.00,,2013-04-26 00:11:00,
2013-04-25 17:21:00,69.0,51.0,30.02,WNW,296,8.0,15.0,52,0.00,,,0.00,,2013-04-26 00:21:00,
2013-04-25 17:31:00,68.0,50.0,30.03,West,269,8.0,15.0,53,0.00,,,0.00,,2013-04-26 00:31:00,
2013-04-25 17:41:00,68.0,50.0,30.03,West,269,8.0,15.0,53,0.00,,,0.00,,2013-04-26 00:41:00,
2013-04-25 17:52:00,67.0,50.0,30.03,WNW,284,10.0,18.0,54,0.00,,,0.00,,2013-04-26 00:52:00,
2013-04-25 18:01:00,66.0,49.0,30.03,NW,313,8.0,16.0,55,0.00,,,0.00,,2013-04-26 01:01:00,
2013-04-25 18:11:00,66.0,49.0,30.03,NW,313,8.0,16.0,55,0.00,,,0.00,,2013-04-26 01:11:00,
2013-04-25 18:21:00,65.0,49.0,30.03,West,267,6.0,15.0,57,0.00,,,0.00,,2013-04-26 01:21:00,
2013-04-25 18:31:00,65.0,49.0,30.04,WSW,243,9.0,17.0,56,0.00,,,0.00,,2013-04-26 01:31:00,
2013-04-25 18:41:00,65.0,49.0,30.04,WSW,243,9.0,17.0,56,0.00,,,0.00,,2013-04-26 01:41:00,
2013-04-25 18:52:00,64.0,49.0,30.04,West,275,9.0,15.0,58,0.00,,,0.00,,2013-04-26 01:52:00,
2013-04-25 19:01:00,63.0,48.0,30.04,West,272,8.0,14.0,59,0.00,,,0.00,,2013-04-26 02:01:00,
2013-04-25 19:11:00,63.0,48.0,30.04,West,272,8.0,14.0,59,0.00,,,0.00,,2013-04-26 02:11:00,
2013-04-25 19:21:00,62.0,48.0,30.04,West,277,4.0,17.0,61,0.00,,,0.00,,2013-04-26 02:21:00,
2013-04-25 19:31:00,61.0,48.0,30.05,West,279,9.0,15.0,63,0.00,,,0.00,,2013-04-26 02:31:00,
2013-04-25 19:41:00,61.0,48.0,30.05,West,279,9.0,15.0,63,0.00,,,0.00,,2013-04-26 02:41:00,
2013-04-25 19:52:00,59.0,47.0,30.05,SSW,196,7.0,15.0,65,0.00,,,0.00,,2013-04-26 02:52:00,
2013-04-25 20:01:00,58.0,47.0,30.05,SW,234,5.0,14.0,67,0.00,,,0.00,,2013-04-26 03:01:00,
2013-04-25 20:11:00,58.0,47.0,30.05,SW,234,5.0,14.0,67,0.00,,,0.00,,2013-04-26 03:11:00,
2013-04-25 20:21:00,57.0,47.0,30.06,WNW,288,7.0,13.0,68,0.00,,,0.00,,2013-04-26 03:21:00,
2013-04-25 20:32:00,56.0,47.0,30.06,WSW,247,6.0,11.0,71,0.00,,,0.00,,2013-04-26 03:32:00,
2013-04-25 20:43:00,56.0,47.0,30.06,WSW,247,6.0,11.0,71,0.00,,,0.00,,2013-04-26 03:43:00,
2013-04-25 20:53:00,56.0,47.0,30.07,West,270,5.0,11.0,72,0.00,,,0.00,,2013-04-26 03:53:00,
2013-04-25 21:02:00,55.0,47.0,30.08,West,269,5.0,12.0,73,0.00,,,0.00,,2013-04-26 04:02:00,
2013-04-25 21:12:00,55.0,47.0,30.08,West,269,5.0,12.0,73,0.00,,,0.00,,2013-04-26 04:12:00,
2013-04-25 21:22:00,55.0,47.0,30.08,West,271,4.0,10.0,74,0.00,,,0.00,,2013-04-26 04:22:00,
2013-04-25 21:32:00,54.0,47.0,30.09,NW,305,4.0,9.0,76,0.00,,,0.00,,2013-04-26 04:32:00,
2013-04-25 21:42:00,54.0,47.0,30.09,NW,305,4.0,9.0,76,0.00,,,0.00,,2013-04-26 04:42:00,
2013-04-25 21:53:00,54.0,47.0,30.09,West,271,5.0,9.0,77,0.00,,,0.00,,2013-04-26 04:53:00,
2013-04-25 22:02:00,53.0,46.0,30.10,WNW,284,3.0,7.0,78,0.00,,,0.00,,2013-04-26 05:02:00,
2013-04-25 22:12:00,53.0,46.0,30.10,WNW,284,3.0,7.0,78,0.00,,,0.00,,2013-04-26 05:12:00,
2013-04-25 22:22:00,53.0,47.0,30.10,WSW,241,4.0,8.0,79,0.00,,,0.00,,2013-04-26 05:22:00,
2013-04-25 22:32:00,53.0,47.0,30.11,WSW,253,3.0,9.0,79,0.00,,,0.00,,2013-04-26 05:32:00,
2013-04-25 22:41:00,53.0,47.0,30.11,WSW,253,3.0,9.0,79,0.00,,,0.00,,2013-04-26 05:41:00,
2013-04-25 22:52:00,52.0,46.0,30.11,SW,234,2.0,7.0,80,0.00,,,0.00,,2013-04-26 05:52:00,
2013-04-25 23:02:00,52.0,46.0,30.11,West,259,3.0,6.0,80,0.00,,,0.00,,2013-04-26 06:02:00,
2013-04-25 23:11:00,52.0,46.0,30.11,West,259,3.0,6.0,80,0.00,,,0.00,,2013-04-26 06:11:00,
2013-04-25 23:21:00,52.0,46.0,30.11,WSW,249,1.0,5.0,81,0.00,,,0.00,,2013-04-26 06:21:00,
2013-04-25 23:32:00,52.0,46.0,30.11,SW,233,1.0,5.0,81,0.00,,,0.00,,2013-04-26 06:32:00,
2013-04-25 23:41:00,52.0,46.0,30.11,SW,233,1.0,5.0,81,0.00,,,0.00,,2013-04-26 06:41:00,
2013-04-25 23:52:00,52.0,47.0,30.11,SW,235,2.0,5.0,82,0.00,,,0.00,,2013-04-26 06:52:00,